TimeCDT,TemperatureF,Dew PointF,Humidity,Sea Level PressureIn,VisibilityMPH,Wind Direction,Wind SpeedMPH,Gust SpeedMPH,PrecipitationIn,Events,Conditions,WindDirDegrees,DateUTC
12:54 AM,82.9,70.0,65,29.76,8.0,South,13.8,-,N/A,,Clear,180,2013-06-22 05:54:00
1:54 AM,82.9,70.0,65,29.80,8.0,SSW,9.2,-,N/A,,Clear,200,2013-06-22 06:54:00
2:26 AM,84.2,64.4,51,29.91,8.0,WNW,31.1,39.1,N/A,,Mostly Cloudy,300,2013-06-22 07:26:00
2:37 AM,80.6,57.2,45,29.91,9.0,WNW,27.6,35.7,N/A,,Mostly Cloudy,300,2013-06-22 07:37:00
2:54 AM,77.0,61.0,58,29.89,10.0,NW,18.4,27.6,N/A,,Mostly Cloudy,310,2013-06-22 07:54:00
3:54 AM,73.9,63.0,68,29.86,10.0,North,5.8,-,N/A,,Clear,350,2013-06-22 08:54:00
4:54 AM,73.0,62.1,68,29.88,10.0,North,8.1,-,N/A,,Clear,350,2013-06-22 09:54:00
5:54 AM,72.0,63.0,73,29.92,10.0,NW,5.8,-,N/A,,Overcast,320,2013-06-22 10:54:00
6:54 AM,73.0,63.0,71,29.91,8.0,ENE,16.1,20.7,N/A,,Mostly Cloudy,70,2013-06-22 11:54:00
7:54 AM,71.1,63.0,75,29.99,6.0,NW,9.2,-,0.00,Rain,Light Rain,310,2013-06-22 12:54:00
7:59 AM,69.8,64.4,83,30.03,1.5,NW,10.4,-,0.08,Rain,Rain,320,2013-06-22 12:59:00
8:12 AM,69.8,64.4,83,30.05,3.0,NW,10.4,-,0.11,Rain,Light Rain,320,2013-06-22 13:12:00
8:54 AM,69.1,64.9,87,29.97,4.0,NE,9.2,-,0.13,Rain,Rain,40,2013-06-22 13:54:00
9:09 AM,69.8,64.4,83,30.01,9.0,NE,4.6,-,0.00,Rain-Thunderstorm,Light Rain,40,2013-06-22 14:09:00
9:31 AM,68.0,64.4,88,29.98,1.8,SE,20.7,-,0.10,Rain-Thunderstorm,Heavy Thunderstorms and Rain,130,2013-06-22 14:31:00
9:46 AM,68.0,64.4,88,29.87,3.0,East,26.5,39.1,0.14,Rain-Thunderstorm,Light Thunderstorms and Rain,100,2013-06-22 14:46:00
9:54 AM,69.1,64.0,84,29.84,8.0,ESE,32.2,42.6,0.14,Rain-Thunderstorm,Light Rain,110,2013-06-22 14:54:00
10:10 AM,69.8,62.6,78,29.82,10.0,East,24.2,39.1,0.00,,Scattered Clouds,80,2013-06-22 15:10:00
10:46 AM,73.4,62.6,69,29.84,10.0,SSW,23.0,29.9,0.00,,Clear,210,2013-06-22 15:46:00
10:54 AM,73.0,63.0,71,29.81,10.0,South,17.3,29.9,0.00,,Clear,180,2013-06-22 15:54:00
11:01 AM,73.4,64.4,73,29.85,10.0,SSE,13.8,24.2,N/A,,Clear,160,2013-06-22 16:01:00
11:54 AM,84.0,68.0,58,29.83,10.0,SE,18.4,28.8,N/A,,Clear,130,2013-06-22 16:54:00
12:54 PM,87.1,66.0,49,29.83,10.0,SE,25.3,31.1,N/A,,Clear,130,2013-06-22 17:54:00
1:54 PM,89.1,64.9,45,29.77,10.0,SE,26.5,41.4,N/A,,Clear,140,2013-06-22 18:54:00
2:54 PM,89.1,71.1,55,29.80,7.0,SSE,18.4,24.2,N/A,,Scattered Clouds,160,2013-06-22 19:54:00
3:54 PM,90.0,71.1,54,29.78,7.0,South,12.7,-,N/A,,Mostly Cloudy,180,2013-06-22 20:54:00
4:54 PM,89.1,71.1,55,29.77,7.0,SE,9.2,-,N/A,,Scattered Clouds,140,2013-06-22 21:54:00
5:54 PM,91.0,68.0,47,29.75,7.0,South,17.3,23.0,N/A,,Mostly Cloudy,170,2013-06-22 22:54:00
6:54 PM,90.0,68.0,48,29.73,7.0,South,17.3,25.3,N/A,,Clear,170,2013-06-22 23:54:00
7:54 PM,88.0,66.9,49,29.73,7.0,South,17.3,25.3,N/A,,Partly Cloudy,170,2013-06-23 00:54:00
8:54 PM,84.0,66.0,55,29.73,6.0,SSE,12.7,-,N/A,,Haze,160,2013-06-23 01:54:00
9:54 PM,82.9,64.9,54,29.76,8.0,SSE,13.8,-,N/A,,Clear,160,2013-06-23 02:54:00
10:54 PM,82.0,66.0,58,29.77,8.0,SSE,15.0,-,N/A,,Clear,150,2013-06-23 03:54:00
11:54 PM,82.0,68.0,62,29.72,7.0,SSE,24.2,31.1,N/A,,Clear,160,2013-06-23 04:54:00